Location: Unspecified
(0.0000°N, 0.0000°E)
Time: 11:22:02
(UTC+00:00)

AO-7 - Pass Details

Date: 13 December 2017
Orbit: 1440 x 1458 km, 101.7° (Epoch: 22 July)

Event Time Altitude Azimuth Distance (km) Brightness Sun altitude
Exits shadow 02:24:28 30° 78° (ENE) 2,368 ? -46.8°
Maximum altitude 02:26:43 35° 107° (ESE) 2,202 ? -46.3°
Drops below altitude 10° 02:34:01 10° 168° (SSE) 3,577 ? -44.8°
Sets 02:37:06 0° 176° (S) 4,556 ? -44.2°
